Regional Weather Roundup
Issued by NWS Grand Forks, ND

Home | Current Version | Previous Version | Text Only | Print | Product List | Glossary Off
Versions: 1 2 3 4 5 6 7 8 9 10 11 12 13 14 15 16 17 18 19 20 21 22 23 24 25 26 27 28 29 30 31 32 33 34 35 36 37 38 39 40 41 42 43 44 45 46 47 48 49 50

000
ASUS43 KFGF 170531
RWRFGF
PRAIRIE TO PINES  WEATHER ROUNDUP
NATIONAL WEATHER SERVICE EASTERN NORTH DAKOTA/GRAND FORKS ND
1100 PM CST SAT DEC 16 2017

 **SATELLITE DATA USED TO AUGMENT SKY COVER AT AUTOMATED STATIONS**
 *****  WEATHER ACROSS EASTERN NORTH DAKOTA  *****

CITY           SKY/WX    TMP DP  RH WIND       PRES   REMARKS
GRAND FORKS    FAIR      14  12  92 S7        30.04R WCI   4
GRAND FRKS AFB FAIR      18  16  90 SW7       30.03R WCI   9
GRAND FRKS NWS   N/A     18 N/A N/A S2          N/A
DEVILS LAKE    FAIR      24  21  88 SW9       30.02R WCI  14
FARGO          FAIR      27  25  92 S8        30.08R WCI  19
WAHPETON ARPT    N/A     25  23  93 CALM      30.11R VSB 3/4
$$

 ***** WEATHER ACROSS CENTRAL AND WESTERN NORTH DAKOTA  *****

CITY           SKY/WX    TMP DP  RH WIND       PRES   REMARKS
BISMARCK       FAIR      27  25  92 SW6       30.07S WCI  20
MINOT          FAIR      26  19  74 SW8       30.00S WCI  18
JAMESTOWN      FAIR      30  28  92 SW5       30.05R
MINOT AFB      FAIR      22  17  83 W7        29.99S WCI  13
GARRISON         N/A     27  21  78 W10       30.03R WCI  17
WILLISTON      FAIR      22  17  81 SW5       30.04S WCI  16
DICKINSON      FAIR      25  21  85 W6        30.03R WCI  18
HETTINGER      MOCLDY    21  17  84 W3        30.08R
$$

 *****  OTHER AIRPORT OBSERVATIONS IN OUR AREA  *****

CITY           SKY/WX    TMP DP  RH WIND       PRES   REMARKS
WALHALLA       FAIR      27  27 100 W9        29.98R WCI  17
GRAFTON AIRPOR NOT AVBL
VALLEY CITY AR NOT AVBL
CANDO          FAIR      14  14 100 W9        30.02R WCI   2
CAVALIER APRT  FAIR      12  12 100 S5        29.99R WCI   4
GWINNER          N/A     27  27 100 S6        30.07F FOG     WCI  20
SHEYENNE NWR     N/A     25  25 100 SW3       29.95S
ROLLA          FAIR      18  16  93 SW5       29.97R WCI  11
 ***** THE ABOVE OBSERVATIONS ARE NON NWS ARE NOT QUALITY
       CONTROLLED AND MAY MIS-REPORT RAIN FOR SNOW...
$$

  *****  WEATHER ACROSS NORTHERN MINNESOTA  *****

CITY           SKY/WX    TMP DP  RH WIND       PRES   REMARKS
FLAG ISLAND    CLOUDY    18  16  93 CALM      30.00F
WARROAD        CLOUDY    19  16  86 S5        30.02S FOG     WCI  13
ROSEAU         CLOUDY    19  16  86 S8        30.02S FOG     WCI   9
HALLOCK        CLOUDY    14  12  92 S8        30.01R FOG     WCI   3
THF RVR FALLS  FOG       21  20  96 S8        30.05S VSB 1/4 WCI  11
BAUDETTE       FOG       18  17  96 S6        30.02S VSB 3/4 WCI  10
WASKISH        CLOUDY    23  21  93 S3        30.05R
CROOKSTON      FAIR      16  12  86 S6        30.07R WCI   7
STEPHEN NDAWN    N/A     12  10  92 S6          N/A  WCI   3
GREENBUSH NDAW   N/A     16  14  93 S8          N/A  WCI   5
$$
  *****  WEATHER ACROSS CENTRAL AND WEST MINNESOTA  *****

CITY           SKY/WX    TMP DP  RH WIND       PRES   REMARKS
FOSSTON        CLOUDY    23  21  93 S9        30.06S WCI  13
BEMIDJI        CLOUDY    24  22  93 SW5       30.05S WCI  18
PARK RAPIDS    CLOUDY    26  23  88 S5        30.06R WCI  20
ELBOW LAKE     FAIR      24  24  99 CALM      30.10R FOG
WADENA         CLOUDY    25  25 100 CALM      30.07S FOG
DETROIT LAKES  CLOUDY    27  27 100 CALM      30.08S
MOORHEAD       FAIR      21  19  93 CALM      30.10S FOG
FERGUS FALLS     N/A     25  25 100 CALM      30.12R FOG
MORRIS MN      FAIR      27  27 100 S3        30.09R FOG
STAPLES        CLOUDY    25  23  93 S5        30.09R FOG     WCI  19
$$
  *****  WEATHER ELSEWHERE ACROSS MINNESOTA  *****

CITY           SKY/WX    TMP DP  RH WIND       PRES   REMARKS
DULUTH         CLOUDY    19  14  81 S3        30.09R
INTRNTL FALLS  CLOUDY    20  17  88 S5        30.05R WCI  13
ELY            CLOUDY    21  18  86 S5        30.07S WCI  15
CLOQUET        CLOUDY    19  14  79 CALM      30.10S
WHEATON        FAIR      27  25  93 SW3       30.12S FOG
BRAINERD       CLOUDY    24  18  77 S3        30.10R
HIBBING        CLOUDY    19  15  84 VRB5      30.08R WCI  12
ALEXANDRIA     CLOUDY    27  26  96 S5        30.09R FOG     WCI  22
SAINT CLOUD    CLOUDY    22  18  85 E5        30.10S WCI  16
MINNEAPOLIS    MOCLDY    23  18  81 NE5       30.12R WCI  17
$$

  *****  WEATHER ACROSS SOUTH DAKOTA  *****

CITY           SKY/WX    TMP DP  RH WIND       PRES   REMARKS
SIOUX FALLS    MOCLDY    28  27  96 N3        30.05R
BROOKINGS      CLOUDY    31  29  92 NE7       30.06S WCI  24
WATERTOWN      MOCLDY    29  29 100 CALM      30.06R
HURON          FAIR      28  28 100 CALM      30.08R FOG
SISSETON         N/A     28  27  96 S3        30.08S
ABERDEEN       CLOUDY    29  27  92 CALM      30.08S
MITCHELL       FAIR      31  30  96 N6        30.08R
PIERRE         CLOUDY    33  31  92 NW5       30.06F
MOBRIDGE       FAIR      31  26  82 N3        30.05S
RAPID CITY     CLOUDY    32  23  69 N5        30.06S
$$

  *****  SOME WEATHER IN NEARBY STATES *****

CITY           SKY/WX    TMP DP  RH WIND       PRES   REMARKS
GLASGOW MT     FAIR      22  17  81 S6        30.03S WCI  14
GREAT FALLS MT FAIR      21  14  74 S10       29.98F WCI  10
CHEYENNE WY    FOG       26  26 100 E8        29.93R VSB 1/4 WCI  18
SCOTTSBLUFF NE CLOUDY    33  27  78 E8        30.01R
OMAHA NE       FAIR      35  26  69 N6        29.99R
DES MOINES IA  FAIR      35  26  69 NE6       29.98R
DAVENPORT IA   FAIR      31  24  75 E8        30.03F WCI  23
CHICAGO IL     FAIR      32  30  92 N7        30.06S
EAU CLAIRE WI  CLOUDY    24  22  91 E5        30.13R WCI  18
LA CROSSE WI   CLOUDY    29  26  89 N5        30.09F WCI  24
$$

  *****  SOME NATIONAL WEATHER *****

CITY           SKY/WX    TMP DP  RH WIND       PRES   REMARKS
LA GUARDIA NY  CLOUDY    35  20  54 N8        30.20S
RALEIGH NC     FAIR      33  24  69 SW6       30.27S
ATLANTA GA     FAIR      41  29  62 CALM      30.28S
NEW ORLEANS LA MOCLDY    59  56  89 E14       30.12F
OKLAHOMA CITY  DRIZZLE   42  40  92 S13       29.98R FOG
ALBUQUERQUE NM MOCLDY    33  15  47 SE9       29.88R
SALT LAKE CITY LGT SNOW  30  29  96 W9        30.07R FOG     WCI  22
LOS ANGELES CA FAIR      59  51  75 CALM      29.78R
BOISE ID       FAIR      28  22  78 W8        30.19R WCI  20
SEATTLE WA     LGT RAIN  43  41  93 S7        30.26F
$$

*** WEATHER ACROSS MANITOBA...SASKATCHEWAN AND ONTARIO ***
                ***ONTARIO***

CITY           SKY/WX    TMP DP  RH WIND       PRES   REMARKS
GERALDTON      LGT SNOW  -2  -8  78 E3        30.17S
THUNDER BAY    FLURRIES  14  10  85 SW5       30.17R WCI   6
SIOUX LOOKOUT  FRZ DRZL   9   7  92 S7        30.01S WCI  -3
TORONTO        PTCLDY    14   7  73 N13       30.21S WCI   0
BIG TROUT LK   CLEAR     -9 -15  77 S8        30.01F WCI -26
PICKLE LAKE    NOT AVBL
DRYDEN         CLOUDY    12  10  92 S9        30.00S FOG     WCI   0
KENORA         LGT SNOW  10   9  92 SW8       29.99  VSB 3/4 WCI  -1
$$
                *** MANITOBA***

CITY           SKY/WX    TMP DP  RH WIND       PRES   REMARKS
BRANDON        PTCLDY    12  10  92 SW9       29.93R WCI   0
DAUPHIN        CLOUDY    28  25  86 SW13      29.86S WCI  18
ISLAND LAKE    CLOUDY     1  -4  78 S7        29.90F WCI -11
PILOT MOUND      N/A     16  16 100 W6          N/A  WCI   7
THE PAS        FLURRIES  12   9  85 S3        29.80S
THOMPSON       FLURRIES  -4  -9  77 S5        29.82F WCI -15
WINNIPEG       PTCLDY    16  12  86 S10       29.96S WCI   3
LYNN LAKE      CLOUDY     1   0  92 SW3       29.70F
CHURCHILL      CLOUDY    -6  -9  84 VRB3      29.82F
GILLAM         FLURRIES  -4  -9  77 SW8       29.86F WCI -19
$$
                ***SASKATCHEWAN***

CITY           SKY/WX    TMP DP  RH WIND       PRES   REMARKS
ESTEVAN        CLEAR     19  16  86 SW9       29.98R WCI   9
KINDERSLEY     CLEAR     18  14  86 S5        29.87F WCI  11
LLOYDMINSTER   CLEAR     23  16  74 SW10      29.76F WCI  12
PRINCE ALBERT  CLOUDY    30  25  80 SW8       29.82S WCI  23
REGINA         CLEAR     21  16  79 SW12      29.93R WCI   9
YORKTON        CLOUDY    25  21  86 W8        29.85S WCI  16
N. BATTLEFORD  CLEAR     23  14  68 W12       29.85S WCI  12
LA RONGE       FLURRIES  18  16  93 S3        29.73F
SASKATOON      PTCLDY    19  16  86 SW10      29.88S WCI   8
SWIFT CURRENT  CLEAR     19  18  93 SW10      29.91F WCI   8
$$
NOTE: THESE ARE AUTOMATED STATIONS WITH LIMITED QUALITY CONTROL
      "FAIR" INDICATES FEW OR NO CLOUDS BELOW 12,000 FEET WITH NO
      SIGNIFICANT WEATHER AND/OR OBSTRUCTIONS TO VISIBILITY.
      SKY/WX - SKY CONDITION AND SIGNIFICANT WEATHER.
      TMP - AIR TEMPERATURE.    DP   - DEWPOINT TEMPERATURE.
      RH  - RELATIVE HUMIDITY.  PRES - PRESSURE.
      HX  - HEAT INDEX.         WCI  - WIND CHILL INDEX.
$




USA.gov is the U.S. government's official web portal to all federal, state and local government web resources and services.